Regional Weather Roundup
Issued by NWS

Home | Current Version | Previous Version | Text Only | Print | Product List | Glossary Off
Versions: 1 2 3 4 5 6 7 8 9 10 11 12 13 14 15 16 17 18 19 20 21 22 23 24 25 26 27

000
ASUS45 KSLC 222310
RWRUT

UTAH REGIONAL WEATHER ROUNDUP
NATIONAL WEATHER SERVICE SALT LAKE CITY UT
500 PM MDT FRI JUL 22 2016

UTZ001>011-023>025-230000-

NORTHERN UTAH

CITY           SKY/WX    TMP DP  RH WIND       PRES   REMARKS
BRIGHAM CITY     N/A     98  20   6 W13       30.04F HX  91
HILL AFB       MOSUNNY   96  32  10 W9G20     30.09F HX  90
LOGAN          SUNNY     98  34  10 SW14G20   30.04F HX  92
OGDEN          SUNNY     98  32  10 W13G21    30.05F HX  92
PROVO AIRPORT  PTSUNNY   84  48  28 W17G29    30.05
SALT LAKE CITY MOSUNNY  100  33   9 N15G23    30.02F HX  94
VERNAL         CLOUDY    86  45  23 SE7       30.18F
WENDOVER       SUNNY     99  34  10 S10       30.03F HX  93
HEBER CITY     PTSUNNY   91  36  14 SW15      30.12F

$$

UTZ012>022-026-027-230000-

SOUTHERN/CENTRAL UTAH

CITY           SKY/WX    TMP DP  RH WIND       PRES   REMARKS
BLANDING       MOSUNNY   92  46  20 NW10G17   30.29F
BRYCE CANYON   SUNNY     81  40  23 SE15      30.38F
CEDAR CITY     SUNNY     96  39  13 S13G29    30.18F HX  91
DELTA          MOSUNNY  100  32   9 SW20G25   30.06F HX  94
MILFORD        MOSUNNY  101  37  11 S23G32    30.09F HX  95
MOAB/CYNLANDS  PTSUNNY   95  43  16 W24G38    30.07F HX  91
PRICE          CLOUDY    88  46  23 SW10G22   30.21F
ST GEORGE      MOCLDY   108  45  12 W14G23    29.95F HX 103

$$

REGIONAL REPORTS     COLORADO/ARIZONA

CITY           SKY/WX    TMP DP  RH WIND       PRES   REMARKS
CRAIG, CO      CLOUDY    85  43  22 S14       30.23F
GRAND JUNCTION CLOUDY    95  47  19 SE12G22   30.13F HX  91
RIFLE          CLOUDY    77  51  40 NW28G43   30.25R
MONTROSE       CLOUDY    85  48  27 E16       30.27F
CORTEZ         CLOUDY    90  51  26 MISG      30.23F
PAGE, AZ       MOSUNNY  101  45  15 N24G33    30.08F HX  97
GRAND CANYON   CLOUDY    84  48  28 E6        30.29F THUNDER
KINGMAN        SUNNY    104  38  10 W20G25    30.03F HX  98
FLAGSTAFF      CLOUDY    72  52  49 N5        30.39S THUNDER

$$

REGIONAL REPORTS    NEVADA/IDAHO/WYOMING

CITY           SKY/WX    TMP DP  RH WIND       PRES   REMARKS
LAS VEGAS, NV  MOSUNNY  111  30   6 VRB5      29.83F HX 103
ELY            SUNNY     91  26   9 S9G24     30.22F
ELKO           SUNNY     92  13   5 W15G25    30.17F
POCATELLO, ID  MOSUNNY   92  30  11 W18       30.10F
BURLEY         SUNNY     86  36  16 W13G22    30.08F
EVANSTON, WY   CLOUDY    87  39  18 W17G33    30.29F
ROCK SPRINGS   CLOUDY    81  41  24 N15G21    30.28S
KEMMERER         N/A     86  32  14 W22G32    30.29S

$$




USA.gov is the U.S. government's official web portal to all federal, state and local government web resources and services.